TimeCDT,TemperatureF,Dew PointF,Humidity,Sea Level PressureIn,VisibilityMPH,Wind Direction,Wind SpeedMPH,Gust SpeedMPH,PrecipitationIn,Events,Conditions,WindDirDegrees,DateUTC
12:17 AM,59.0,57.2,94,29.86,10.0,SE,9.2,-,N/A,Rain-Thunderstorm,Light Thunderstorms and Rain,140,2013-10-05 05:17:00
12:36 AM,59.0,57.2,94,29.91,10.0,South,4.6,-,N/A,Rain-Thunderstorm,Thunderstorms and Rain,180,2013-10-05 05:36:00
12:56 AM,59.0,57.2,94,29.91,1.8,Calm,Calm,-,N/A,Rain-Thunderstorm,Heavy Thunderstorms and Rain,0,2013-10-05 05:56:00
1:17 AM,59.0,57.2,94,29.90,3.0,Calm,Calm,-,N/A,Rain-Thunderstorm,Rain,0,2013-10-05 06:17:00
1:36 AM,59.0,59.0,100,29.89,4.0,ESE,10.4,-,N/A,Rain-Thunderstorm,Rain,110,2013-10-05 06:36:00
1:56 AM,59.0,59.0,100,29.88,7.0,SE,5.8,-,N/A,Rain-Thunderstorm,Light Thunderstorms and Rain,130,2013-10-05 06:56:00
2:17 AM,59.0,59.0,100,29.87,10.0,Calm,Calm,-,N/A,Rain,Rain,0,2013-10-05 07:17:00
2:36 AM,59.0,59.0,100,29.86,7.0,SSE,3.5,-,N/A,Rain-Thunderstorm,Heavy Thunderstorms and Rain,160,2013-10-05 07:36:00
2:56 AM,59.0,59.0,100,29.84,10.0,SSE,6.9,-,N/A,,Overcast,150,2013-10-05 07:56:00
3:16 AM,59.0,57.2,94,29.83,10.0,SE,4.6,-,N/A,,Scattered Clouds,140,2013-10-05 08:16:00
3:36 AM,59.0,57.2,94,29.84,10.0,SSE,10.4,-,N/A,,Mostly Cloudy,150,2013-10-05 08:36:00
3:56 AM,59.0,57.2,94,29.83,10.0,SE,10.4,16.1,N/A,,Mostly Cloudy,130,2013-10-05 08:56:00
4:16 AM,59.0,55.4,88,29.83,10.0,SE,12.7,16.1,N/A,,Scattered Clouds,140,2013-10-05 09:16:00
4:36 AM,59.0,55.4,88,29.83,10.0,SE,8.1,-,N/A,,Clear,140,2013-10-05 09:36:00
4:56 AM,59.0,57.2,94,29.82,10.0,ESE,10.4,-,N/A,,Mostly Cloudy,120,2013-10-05 09:56:00
5:16 AM,59.0,57.2,94,29.82,10.0,SE,10.4,-,N/A,,Scattered Clouds,130,2013-10-05 10:16:00
5:37 AM,59.0,57.2,94,29.83,10.0,SE,6.9,-,N/A,,Mostly Cloudy,130,2013-10-05 10:37:00
5:56 AM,59.0,57.2,94,29.84,10.0,SE,6.9,-,N/A,,Mostly Cloudy,130,2013-10-05 10:56:00
6:16 AM,59.0,57.2,94,29.84,10.0,ESE,5.8,-,N/A,,Overcast,120,2013-10-05 11:16:00
6:37 AM,59.0,57.2,94,29.83,10.0,SE,3.5,-,N/A,,Overcast,130,2013-10-05 11:37:00
6:56 AM,59.0,57.2,94,29.82,10.0,SE,3.5,-,N/A,,Overcast,130,2013-10-05 11:56:00
7:16 AM,59.0,57.2,94,29.83,10.0,Calm,Calm,-,N/A,,Overcast,0,2013-10-05 12:16:00
7:37 AM,59.0,57.2,94,29.83,10.0,SSE,3.5,-,N/A,,Overcast,160,2013-10-05 12:37:00
7:56 AM,59.0,57.2,94,29.84,10.0,Calm,Calm,-,N/A,,Overcast,0,2013-10-05 12:56:00
8:16 AM,59.0,57.2,94,29.83,10.0,SE,3.5,-,N/A,,Overcast,140,2013-10-05 13:16:00
8:37 AM,59.0,57.2,94,29.82,10.0,SE,4.6,-,N/A,,Overcast,140,2013-10-05 13:37:00
8:56 AM,59.0,57.2,94,29.81,10.0,SE,4.6,-,N/A,,Overcast,140,2013-10-05 13:56:00
9:16 AM,59.0,57.2,94,29.82,10.0,Calm,Calm,-,N/A,,Overcast,0,2013-10-05 14:16:00
9:37 AM,60.8,59.0,94,29.83,10.0,SE,5.8,-,N/A,,Overcast,140,2013-10-05 14:37:00
9:56 AM,60.8,59.0,94,29.83,10.0,SE,5.8,-,N/A,,Overcast,140,2013-10-05 14:56:00
10:16 AM,60.8,59.0,94,29.84,10.0,Calm,Calm,-,N/A,,Overcast,0,2013-10-05 15:16:00
10:36 AM,60.8,59.0,94,29.84,10.0,SE,4.6,-,N/A,,Overcast,130,2013-10-05 15:36:00
10:56 AM,60.8,59.0,94,29.84,3.0,Calm,Calm,-,N/A,,Overcast,0,2013-10-05 15:56:00
11:16 AM,60.8,59.0,94,29.84,10.0,ESE,3.5,-,N/A,,Overcast,110,2013-10-05 16:16:00
11:36 AM,62.6,60.8,94,29.83,10.0,Calm,Calm,-,N/A,,Overcast,0,2013-10-05 16:36:00
11:56 AM,62.6,60.8,94,29.82,10.0,East,3.5,-,N/A,,Mostly Cloudy,100,2013-10-05 16:56:00
12:16 PM,66.2,62.6,88,29.81,10.0,Calm,Calm,-,N/A,,Scattered Clouds,0,2013-10-05 17:16:00
12:37 PM,69.8,64.4,83,29.81,10.0,Calm,Calm,-,N/A,,Mostly Cloudy,0,2013-10-05 17:37:00
12:56 PM,69.8,62.6,78,29.80,10.0,Calm,Calm,-,N/A,,Overcast,0,2013-10-05 17:56:00
1:16 PM,69.8,62.6,78,29.79,10.0,Calm,Calm,-,N/A,,Overcast,0,2013-10-05 18:16:00
1:36 PM,69.8,62.6,78,29.78,10.0,Calm,Calm,-,N/A,,Mostly Cloudy,0,2013-10-05 18:36:00
1:56 PM,69.8,62.6,78,29.77,10.0,Calm,Calm,-,N/A,,Overcast,0,2013-10-05 18:56:00
2:16 PM,68.0,62.6,83,29.77,10.0,North,3.5,-,N/A,,Overcast,360,2013-10-05 19:16:00
2:36 PM,64.4,60.8,88,29.77,10.0,NNW,5.8,-,N/A,,Overcast,330,2013-10-05 19:36:00
2:57 PM,62.6,59.0,88,29.77,10.0,NW,4.6,-,N/A,,Overcast,320,2013-10-05 19:57:00
3:16 PM,62.6,60.8,94,29.76,10.0,NNW,3.5,-,N/A,,Overcast,330,2013-10-05 20:16:00
3:36 PM,62.6,59.0,88,29.75,10.0,NNW,4.6,-,N/A,,Overcast,330,2013-10-05 20:36:00
3:56 PM,62.6,59.0,88,29.74,10.0,NNW,3.5,-,N/A,,Mostly Cloudy,340,2013-10-05 20:56:00
4:16 PM,62.6,59.0,88,29.74,10.0,Calm,Calm,-,N/A,,Overcast,0,2013-10-05 21:16:00
4:36 PM,62.6,59.0,88,29.74,10.0,NW,3.5,-,N/A,,Overcast,310,2013-10-05 21:36:00
4:56 PM,62.6,55.4,77,29.74,10.0,SW,6.9,-,N/A,,Overcast,230,2013-10-05 21:56:00
5:16 PM,62.6,51.8,68,29.74,10.0,WSW,3.5,-,N/A,,Overcast,240,2013-10-05 22:16:00
5:36 PM,62.6,51.8,68,29.74,10.0,WSW,6.9,-,N/A,,Overcast,250,2013-10-05 22:36:00
5:56 PM,62.6,50.0,63,29.76,10.0,WSW,9.2,-,N/A,,Overcast,240,2013-10-05 22:56:00
6:16 PM,60.8,48.2,63,29.77,10.0,West,6.9,-,N/A,,Overcast,270,2013-10-05 23:16:00
6:36 PM,59.0,48.2,67,29.76,10.0,West,3.5,-,N/A,Rain,Light Rain,270,2013-10-05 23:36:00
6:56 PM,59.0,50.0,72,29.77,10.0,West,5.8,-,N/A,Rain,Light Rain,270,2013-10-05 23:56:00
7:16 PM,55.4,50.0,82,29.76,10.0,Calm,Calm,-,N/A,,Overcast,0,2013-10-06 00:16:00
7:36 PM,55.4,50.0,82,29.75,10.0,Calm,Calm,-,N/A,,Overcast,0,2013-10-06 00:36:00
7:56 PM,55.4,51.8,88,29.76,10.0,Calm,Calm,-,N/A,,Overcast,0,2013-10-06 00:56:00
8:16 PM,55.4,50.0,82,29.77,10.0,Calm,Calm,-,N/A,,Overcast,0,2013-10-06 01:16:00
8:36 PM,55.4,50.0,82,29.77,10.0,Calm,Calm,-,N/A,,Overcast,0,2013-10-06 01:36:00
8:56 PM,53.6,50.0,88,29.78,10.0,Calm,Calm,-,N/A,,Overcast,0,2013-10-06 01:56:00
9:16 PM,53.6,51.8,94,29.78,10.0,Calm,Calm,-,N/A,,Mostly Cloudy,0,2013-10-06 02:16:00
9:36 PM,53.6,50.0,88,29.78,10.0,Calm,Calm,-,N/A,,Overcast,0,2013-10-06 02:36:00
9:56 PM,53.6,51.8,94,29.78,10.0,Calm,Calm,-,N/A,,Overcast,0,2013-10-06 02:56:00
10:16 PM,53.6,51.8,94,29.77,10.0,Calm,Calm,-,N/A,,Scattered Clouds,0,2013-10-06 03:16:00
10:36 PM,53.6,44.6,72,29.77,10.0,West,5.8,-,N/A,,Clear,260,2013-10-06 03:36:00
10:56 PM,53.6,44.6,72,29.78,10.0,West,4.6,-,N/A,,Clear,260,2013-10-06 03:56:00
11:17 PM,51.8,41.0,67,29.77,10.0,West,3.5,-,N/A,,Clear,260,2013-10-06 04:17:00
11:36 PM,51.8,42.8,71,29.78,10.0,West,3.5,-,N/A,,Clear,260,2013-10-06 04:36:00
11:56 PM,50.0,41.0,71,29.77,10.0,Calm,Calm,-,N/A,,Clear,0,2013-10-06 04:56:00